Location: ??????????
(44.2167°N, 135.5333°E)
Time: 14:20:58
(UTC+00:00)

Tsikada Rocket - Pass Details

Date: 15 June 2025
Orbit: 958 x 1007 km, 82.9° (Epoch: 15 July)

Event Time Altitude Azimuth Distance (km) Brightness Sun altitude
Exits shadow 14:55:29 45° 176° (S) 1,292 4.2 -22.4°
Maximum altitude 14:57:32 81° 97° (E) 988 3.9 -22.4°
Drops below altitude 10° 15:03:49 10° 10° (N) 2,742 7.5 -22.4°
Sets 15:06:22 0° 10° (N) 3,701 8.5 -22.4°
